Weather History for PADE - August, 2013

Change the Weather History Date:

Sunday, August 11, 2013

  Actual Average (PAOT) Record (PAOT)
Temperature  
Mean Temperature 56 °F 53 °F  
Max Temperature 64 °F 57 °F 74 °F (1960)
Min Temperature 50 °F 48 °F 35 °F (1902)
Degree Days  
Heating Degree Days 10 12  
Month to date heating degree days 126  
Since 1 June heating degree days 1033  
Since 1 July heating degree days 452  
Cooling Degree Days 0    
Month to date cooling degree days  
Year to date cooling degree days  
Since 1 June cooling degree days  
Growing Degree Days 6 (Base 50)    
Moisture  
Dew Point 51 °F    
Average Humidity 89    
Maximum Humidity 100    
Minimum Humidity 64    
Precipitation  
Precipitation 0.07 in 0.07 in 0.71 in (1958)
Month to date precipitation 0.80  
Year to date precipitation 5.50  
Snow  
Snow 0.00 in 0.00 in T in (1973)
Month to date snowfall 0.0  
Since 1 June snowfall 0.0  
Since 1 July snowfall 0.0  
Snow Depth -    
Sea Level Pressure  
Sea Level Pressure 29.90 in    
Wind  
Wind Speed 6 mph (SSW)    
Max Wind Speed 13 mph    
Max Gust Speed -    
Visibility 8 miles    
Events Fog , Rain    
T = Trace of Precipitation, MM = Missing Value Source: NWS Daily Summary

Daily Weather History Graph

Daily Weather History Graph

Search for Another Location

Airport or City:

Trip Planner

Search our weather history database for the weather conditions in past years. The results will help you decide how hot, cold, wet, or windy it might be!

Date:

Astronomy

Aug. 11, 2013 Rise Set
Actual Time 6:15 AM AKDT 11:34 PM AKDT
Civil Twilight 4:51 AM AKDT 12:55 AM AKDT
Nautical Twilight Sun does not rise Sun does not rise
Astronomical Twilight Sun does not rise Sun does not rise
Moon 1:54 PM AKDT (8/11) 11:11 PM AKDT (8/11)
Length of Visible Light 20h 03m
Length of Day
17h 18m
Waxing Crescent, 23% of the Moon is Illuminated
Aug 11
Waxing Crescent
Aug 14
First Quarter
Aug 20
Full
Aug 28
Last Quarter
Sep 5
New

Hourly Weather History & Observations

Time (AKDT) Temp. Dew Point Humidity Pressure Visibility Wind Dir Wind Speed Gust Speed Precip Events Conditions
12:53 AM 51.1 °F 48.9 °F 92% 29.83 in 10.0 mi SSW 6.9 mph - N/A   Mostly Cloudy
1:48 AM 50.0 °F 48.2 °F 94% 29.84 in 10.0 mi SSW 6.9 mph - N/A   Mostly Cloudy
1:53 AM 51.1 °F 48.9 °F 92% 29.85 in 10.0 mi South 6.9 mph - N/A   Mostly Cloudy
2:53 AM 53.1 °F 51.1 °F 93% 29.86 in 10.0 mi SSW 8.1 mph - N/A   Overcast
3:33 AM 53.6 °F 51.8 °F 94% 29.87 in 1.8 mi SSW 5.8 mph - 0.00 in Rain Light Rain
3:41 AM 51.8 °F 51.8 °F 100% 29.87 in 2.0 mi SSW 5.8 mph - 0.00 in Rain Light Rain
3:47 AM 51.8 °F 51.8 °F 100% 29.86 in 2.0 mi SW 5.8 mph - 0.00 in Rain Light Rain
3:53 AM 52.0 °F 51.1 °F 97% 29.87 in 3.0 mi SW 5.8 mph - 0.00 in Rain Light Rain
4:51 AM 51.8 °F 51.8 °F 100% 29.87 in 1.8 mi SW 5.8 mph - 0.00 in   Overcast
4:53 AM 52.0 °F 51.1 °F 97% 29.87 in 1.8 mi SSW 4.6 mph - 0.00 in   Overcast
5:14 AM 51.8 °F 51.8 °F 100% 29.87 in 0.8 mi SSW 4.6 mph - N/A   Mist
5:53 AM 52.0 °F 51.1 °F 97% 29.87 in 0.2 mi SSW 5.8 mph - N/A Fog Fog
6:18 AM 51.8 °F 51.8 °F 100% 29.88 in 2.0 mi South 8.1 mph - 0.06 in Rain Light Rain
6:25 AM 51.8 °F 51.8 °F 100% 29.88 in 8.0 mi South 3.5 mph - 0.06 in Rain Light Rain
6:30 AM 51.8 °F 51.8 °F 100% 29.88 in 10.0 mi South 3.5 mph - 0.06 in Rain Light Rain
6:43 AM 51.8 °F 51.8 °F 100% 29.88 in 10.0 mi Calm Calm - 0.06 in   Overcast
6:53 AM 52.0 °F 51.1 °F 97% 29.88 in 10.0 mi South 3.5 mph - 0.06 in   Overcast
7:15 AM 51.8 °F 51.8 °F 100% 29.87 in 10.0 mi Calm Calm - N/A   Mostly Cloudy
7:31 AM 51.8 °F 50.0 °F 94% 29.88 in 10.0 mi Calm Calm - N/A   Mostly Cloudy
7:53 AM 52.0 °F 51.1 °F 97% 29.88 in 10.0 mi SSW 3.5 mph - N/A   Overcast
8:53 AM 53.1 °F 52.0 °F 96% 29.89 in 10.0 mi Calm Calm - N/A   Overcast
9:04 AM 53.6 °F 51.8 °F 94% 29.89 in 10.0 mi Calm Calm - N/A   Overcast
9:14 AM 53.6 °F 51.8 °F 94% 29.89 in 10.0 mi SW 3.5 mph - N/A   Overcast
9:42 AM 53.6 °F 51.8 °F 94% 29.89 in 10.0 mi South 3.5 mph - N/A   Overcast
9:53 AM 55.0 °F 51.1 °F 86% 29.89 in 10.0 mi South 3.5 mph - N/A   Overcast
10:40 AM 57.2 °F 51.8 °F 82% 29.90 in 10.0 mi SE 3.5 mph - N/A   Overcast
10:53 AM 55.9 °F 51.1 °F 84% 29.91 in 10.0 mi SSE 5.8 mph - N/A   Overcast
11:53 AM 57.9 °F 51.1 °F 78% 29.91 in 10.0 mi SSE 11.5 mph - N/A   Overcast
12:53 PM 59.0 °F 48.9 °F 69% 29.91 in 10.0 mi SE 12.7 mph - 0.00 in   Overcast
1:32 PM 60.8 °F 50.0 °F 68% 29.91 in 10.0 mi SSE 9.2 mph - N/A   Overcast
1:46 PM 60.8 °F 50.0 °F 68% 29.91 in 10.0 mi SE 10.4 mph - N/A   Overcast
1:53 PM 60.1 °F 48.9 °F 67% 29.91 in 10.0 mi ESE 12.7 mph - N/A   Overcast
2:53 PM 61.0 °F 48.9 °F 64% 29.91 in 10.0 mi SSE 8.1 mph - 0.00 in   Overcast
3:53 PM 57.9 °F 52.0 °F 81% 29.93 in 7.0 mi SSW 5.8 mph - 0.00 in Rain Light Rain
4:53 PM 60.1 °F 50.0 °F 69% 29.93 in 10.0 mi Variable 3.5 mph - 0.00 in   Overcast
5:53 PM 61.0 °F 50.0 °F 67% 29.93 in 10.0 mi South 8.1 mph - N/A   Overcast
6:53 PM 57.9 °F 51.1 °F 78% 29.94 in 10.0 mi NW 11.5 mph - 0.00 in Rain Light Rain
7:53 PM 57.0 °F 52.0 °F 83% 29.95 in 10.0 mi WNW 8.1 mph - 0.01 in   Mostly Cloudy
8:53 PM 57.0 °F 51.1 °F 81% 29.96 in 10.0 mi North 3.5 mph - N/A   Mostly Cloudy
9:53 PM 54.0 °F 51.1 °F 90% 29.97 in 10.0 mi West 3.5 mph - N/A   Partly Cloudy
10:53 PM 53.1 °F 51.1 °F 93% 29.98 in 10.0 mi Calm Calm - N/A   Overcast
11:53 PM 52.0 °F 50.0 °F 93% 29.99 in 10.0 mi SSW 4.6 mph - N/A   Overcast